This is the latest recevied weather packets stored in our database for station/object K7DC. If no packets are shown the sender has not sent any weather packets the latest 10 day(s).
| Time | Temp. | Humidity | Pressure | Rain* | Wind** | Luminosity | Snow |
|---|---|---|---|---|---|---|---|
| 1777049534 | 27.78° C | 17% | 1013 hPa | 0 mm | - | 718 W/m² | - |
| 1777049233 | 28.89° C | 18% | 1013 hPa | 0 mm | - | 680 W/m² | - |
| 1777048929 | 28.89° C | 19% | 1013.1 hPa | 0 mm | - | 707 W/m² | - |
| 1777048628 | 27.78° C | 20% | 1013.2 hPa | 0 mm | - | 694 W/m² | - |
| 1777048324 | 27.78° C | 21% | 1013.1 hPa | 0 mm | - | 669 W/m² | - |
| 1777048019 | 28.33° C | 20% | 1013 hPa | 0 mm | - | 650 W/m² | - |
| 1777047714 | 28.33° C | 21% | 1013.2 hPa | 0 mm | - | 639 W/m² | - |
| 1777047410 | 28.89° C | 21% | 1012.9 hPa | 0 mm | - | 599 W/m² | - |
| 1777047105 | 27.78° C | 22% | 1013 hPa | 0 mm | - | 524 W/m² | - |
| 1777046804 | 26.67° C | 23% | 1013.1 hPa | 0 mm | - | 599 W/m² | - |
| 1777046499 | 26.11° C | 24% | 1012.9 hPa | 0 mm | - | 536 W/m² | - |
| 1777046194 | 25° C | 27% | 1013.2 hPa | 0 mm | - | 569 W/m² | - |
| 1777045890 | 23.89° C | 28% | 1013.1 hPa | 0 mm | - | 484 W/m² | - |
| 1777045587 | 23.33° C | 29% | 1013.1 hPa | 0 mm | - | 537 W/m² | - |
| 1777045282 | 22.78° C | 30% | 1013 hPa | 0 mm | - | 475 W/m² | - |
| 1777044979 | 22.22° C | 32% | 1012.9 hPa | 0 mm | - | 501 W/m² | - |
| 1777044674 | 22.22° C | 31% | 1012.8 hPa | 0 mm | - | 460 W/m² | - |
| 1777044371 | 21.67° C | 32% | 1013.2 hPa | 0 mm | - | 441 W/m² | - |
| 1777044071 | 21.67° C | 32% | 1013.1 hPa | 0 mm | - | 428 W/m² | - |
| 1777043768 | 21.11° C | 33% | 1013.4 hPa | 0 mm | - | 395 W/m² | - |
| 1777043465 | 21.11° C | 33% | 1013.3 hPa | 0 mm | - | 387 W/m² | - |
| 1777043161 | 20.56° C | 34% | 1013.2 hPa | 0 mm | - | 340 W/m² | - |
| 1777042856 | 20° C | 34% | 1013.3 hPa | 0 mm | - | 314 W/m² | - |
| 1777042552 | 19.44° C | 35% | 1013.3 hPa | 0 mm | - | 338 W/m² | - |
| 1777042248 | 18.89° C | 37% | 1013.4 hPa | 0 mm | - | 309 W/m² | - |
* Rain latest hour (hover to see other rain measurements)
** Current wind speed in m/s (hover to see current wind gust speed)